KD2GO Weather Reports


time (UTC)temp
F
wind
direction
speed
knots
gust
knots
rain 1hr
in
rain 24hr
in
rain mn
in
humidity
%
barometer
mb
20260507213000 61 271 2.6 7.0 0.00 0.32 0.08 42 1007.6
20260507211500 60 309 1.7 3.5 0.00 0.32 0.08 42 1007.5
20260507210000 61 253 3.5 8.7 0.00 0.32 0.08 38 1007.5
20260507204500 62 301 1.7 9.6 0.00 0.32 0.08 41 1007.3
20260507203000 62 295 2.6 7.0 0.00 0.32 0.08 40 1007.4
20260507201500 62 298 2.6 7.0 0.00 0.32 0.08 44 1007.5
20260507200000 62 268 1.7 5.2 0.00 0.32 0.08 41 1007.5
20260507193000 60 86 2.6 7.8 0.00 0.32 0.08 42 1007.9
20260507191459 60 275 1.7 5.2 0.00 0.32 0.08 44 1007.9
20260507190003 60 255 2.6 7.0 0.00 0.32 0.08 41 1008.1
20260507183000 60 45 3.5 9.6 0.00 0.34 0.08 39 1008.4
20260507181501 59 181 2.6 5.2 0.00 0.34 0.08 42 1008.4
20260507180002 59 122 2.6 7.8 0.00 0.34 0.08 43 1008.7
20260507174500 59 1 2.6 7.8 0.00 0.36 0.08 44 1008.9
20260507173000 58 276 4.3 9.6 0.00 0.36 0.08 44 1009.1
20260507171500 58 276 3.5 12.2 0.00 0.36 0.08 43 1009.4
20260507170002 57 93 2.6 7.0 0.00 0.36 0.08 44 1009.7
20260507164500 57 275 2.6 7.8 0.00 0.41 0.08 51 1009.7
20260507163000 56 281 2.6 7.8 0.00 0.41 0.08 47 1010.1
20260507161501 56 79 1.7 5.2 0.00 0.41 0.08 48 1010.1
20260507160000 56 359 2.6 7.8 0.00 0.45 0.08 53 1010.4
20260507150002 53 308 3.5 8.7 0.00 0.45 0.08 58 1011.1
20260507143000 52 274 4.3 8.7 0.00 0.47 0.08 62 1011.4
20260507141501 52 272 2.6 7.8 0.00 0.47 0.08 64 1011.4
20260507140000 52 271 2.6 13.0 0.00 0.47 0.08 64 1011.3
20260507134501 51 148 2.6 9.6 0.00 0.47 0.08 63 1011.5
20260507132958 51 338 1.7 10.4 0.00 0.47 0.08 67 1011.5
20260507131459 50 271 3.5 9.6 0.00 0.47 0.08 70 1011.3
20260507125958 50 291 2.6 7.0 0.00 0.47 0.08 74 1011.3
20260507124458 49 347 3.5 8.7 0.00 0.47 0.08 75 1011.2
20260507121457 48 352 1.7 6.1 0.00 0.47 0.08 83 1011.1
20260507120001 47 297 1.7 5.2 0.00 0.47 0.08 85 1011.2
20260507114500 47 275 1.7 5.2 0.00 0.47 0.08 84 1011.1
20260507113000 47 246 0.9 2.6 0.00 0.47 0.08 83 1011.0
20260507105958 46 330 1.7 6.1 0.00 0.47 0.08 83 1010.5
20260507104458 46 267 1.7 7.0 0.00 0.47 0.08 80 1010.4
20260507102958 46 273 0.9 4.3 0.00 0.47 0.08 75 1010.1
20260507101459 46 326 0.9 3.5 0.00 0.47 0.08 70 1010.0
20260507100001 46 244 0.9 2.6 0.00 0.47 0.08 66 1009.6
20260507094459 46 308 0.9 3.5 0.00 0.47 0.08 63 1009.7
20260507092959 46 304 0.0 0.9 0.00 0.47 0.08 62 1009.4
20260507091500 46 295 0.0 1.7 0.00 0.47 0.08 62 1009.3
20260507085958 46 295 0.0 2.6 0.00 0.47 0.08 62 1009.4
20260507084500 46 281 0.0 0.9 0.00 0.47 0.08 64 1009.5
20260507082959 47 281 0.0 1.7 0.00 0.47 0.08 65 1009.6
20260507081458 47 281 0.9 3.5 0.00 0.47 0.08 66 1009.7
20260507075958 47 281 0.9 2.6 0.00 0.47 0.08 69 1009.7
20260507074458 47 276 1.7 3.5 0.00 0.47 0.08 69 1009.6
20260507072959 47 207 0.9 2.6 0.02 0.47 0.08 70 1009.8
20260507071458 47 265 0.9 4.3 0.03 0.47 0.08 72 1010.0
20260507065959 47 245 0.9 2.6 0.05 0.47 0.08 74 1010.2
20260507064459 47 266 0.9 3.5 0.08 0.47 0.08 77 1010.0
20260507061458 48 276 0.9 5.2 0.05 0.44 0.05 83 1009.7
20260507055959 48 285 0.9 6.1 0.03 0.42 0.03 85 1010.0
20260507052958 50 279 1.7 7.8 0.00 0.39 0.00 83 1009.8
20260507051458 50 269 1.7 4.3 0.00 0.39 0.00 83 1009.4
20260507050000 50 272 1.7 4.3 0.00 0.39 0.00 83 1009.2
20260507044500 50 257 1.7 5.2 0.00 0.39 0.00 83 1008.8
20260507043000 51 266 0.9 3.5 0.00 0.39 0.00 83 1009.0
20260507040006 51 261 2.6 7.8 0.00 0.39 0.00 84 1009.2
20260507034503 51 285 2.6 7.0 0.00 0.39 0.39 85 1009.3
20260507033003 51 240 1.7 6.1 0.00 0.39 0.39 84 1008.9
20260507031503 51 251 2.6 5.2 0.00 0.39 0.39 84 1008.9
20260507030004 52 334 1.7 6.1 0.00 0.39 0.39 82 1008.9
20260507024502 53 67 1.7 4.3 0.00 0.39 0.39 77 1009.1
20260507023003 53 295 1.7 6.1 0.00 0.39 0.39 77 1009.0
20260507021503 53 278 2.6 6.1 0.00 0.39 0.39 75 1009.1
20260507014502 55 275 0.9 7.0 0.01 0.39 0.39 70 1008.9
20260507013001 57 236 1.7 7.0 0.02 0.39 0.39 68 1008.7
20260507011501 60 6 3.5 7.8 0.07 0.39 0.39 45 1008.5
20260507010002 60 294 3.5 6.1 0.24 0.39 0.39 47 1008.3
20260507004501 60 308 2.6 7.0 0.23 0.38 0.38 51 1008.0
20260507001501 61 297 3.5 11.3 0.17 0.32 0.32 54 1007.8
20260506233001 62 295 0.0 0.9 0.00 0.15 0.15 56 1007.3
20260506231502 62 295 0.9 1.7 0.00 0.15 0.15 56 1007.2
20260506230002 62 296 0.9 3.5 0.00 0.15 0.15 56 1007.3
20260506224500 62 296 1.7 6.1 0.00 0.15 0.15 55 1007.1
20260506223001 62 360 1.7 3.5 0.00 0.15 0.15 49 1007.0
20260506221501 62 310 1.7 4.3 0.00 0.15 0.15 45 1007.2
20260506220001 62 291 1.7 5.2 0.00 0.15 0.15 39 1007.1
20260506214501 61 284 1.7 5.2 0.00 0.15 0.15 34 1006.9